Time,TemperatureF,DewpointF,PressureIn,WindDirection,WindDirectionDegrees,WindSpeedMPH,WindSpeedGustMPH,Humidity,HourlyPrecipIn,Conditions,Clouds,dailyrainin,SoftwareType,DateUTC
2013-12-29 00:07:00,30.4,28.0,29.97,WNW,299,20.0,-999.0,89,-99.99,,,0.00,weatherlink.com 1.10,2013-12-29 06:07:00,
2013-12-29 00:22:00,29.8,27.0,29.98,WNW,298,9.0,-999.0,89,-99.99,,,0.00,weatherlink.com 1.10,2013-12-29 06:22:00,
2013-12-29 00:37:00,28.7,26.0,29.99,WNW,286,6.0,-999.0,89,-99.99,,,0.00,weatherlink.com 1.10,2013-12-29 06:37:00,
2013-12-29 01:08:00,25.4,23.0,30.00,NNW,342,10.0,-999.0,89,-99.99,,,0.00,weatherlink.com 1.10,2013-12-29 07:08:00,
2013-12-29 01:23:00,24.1,21.0,30.01,NW,326,22.0,-999.0,89,-99.99,,,0.00,weatherlink.com 1.10,2013-12-29 07:23:00,
2013-12-29 01:38:00,23.1,20.0,30.02,NW,312,14.0,-999.0,88,-99.99,,,0.00,weatherlink.com 1.10,2013-12-29 07:38:00,
2013-12-29 01:53:00,22.0,19.0,30.03,NNW,343,11.0,-999.0,87,-99.99,,,0.00,weatherlink.com 1.10,2013-12-29 07:53:00,
2013-12-29 02:08:00,21.4,18.0,30.05,WNW,292,12.0,-999.0,88,-99.99,,,0.00,weatherlink.com 1.10,2013-12-29 08:08:00,
2013-12-29 02:23:00,20.3,17.0,30.06,NW,311,8.0,-999.0,87,-99.99,,,0.00,weatherlink.com 1.10,2013-12-29 08:23:00,
2013-12-29 02:38:00,19.7,16.0,30.07,WNW,300,8.0,-999.0,85,-99.99,,,0.00,weatherlink.com 1.10,2013-12-29 08:38:00,
2013-12-29 02:53:00,19.5,16.0,30.08,West,269,18.0,-999.0,85,-99.99,,,0.00,weatherlink.com 1.10,2013-12-29 08:53:00,
2013-12-29 03:09:00,18.6,15.0,30.08,North,355,4.0,-999.0,84,-99.99,,,0.00,weatherlink.com 1.10,2013-12-29 09:09:00,
2013-12-29 03:24:00,18.5,15.0,30.09,WNW,299,8.0,-999.0,84,-99.99,,,0.00,weatherlink.com 1.10,2013-12-29 09:24:00,
2013-12-29 03:39:00,17.7,13.0,30.09,NNW,336,5.0,-999.0,83,-99.99,,,0.00,weatherlink.com 1.10,2013-12-29 09:39:00,
2013-12-29 03:54:00,17.0,12.0,30.10,NW,312,7.0,-999.0,82,-99.99,,,0.00,weatherlink.com 1.10,2013-12-29 09:54:00,
2013-12-29 04:09:00,16.6,12.0,30.11,NW,324,9.0,-999.0,82,-99.99,,,0.00,weatherlink.com 1.10,2013-12-29 10:09:00,
2013-12-29 04:24:00,16.4,12.0,30.12,NW,312,17.0,-999.0,83,-99.99,,,0.00,weatherlink.com 1.10,2013-12-29 10:24:00,
2013-12-29 04:39:00,15.8,11.0,30.12,WNW,290,6.0,-999.0,82,-99.99,,,0.00,weatherlink.com 1.10,2013-12-29 10:39:00,
2013-12-29 04:54:00,15.2,11.0,30.13,West,271,9.0,-999.0,82,-99.99,,,0.00,weatherlink.com 1.10,2013-12-29 10:54:00,
2013-12-29 05:09:00,14.7,10.0,30.14,NW,317,10.0,-999.0,81,-99.99,,,0.00,weatherlink.com 1.10,2013-12-29 11:09:00,
2013-12-29 05:25:00,14.4,10.0,30.14,WNW,294,12.0,-999.0,82,-99.99,,,0.00,weatherlink.com 1.10,2013-12-29 11:25:00,
2013-12-29 05:40:00,13.9,9.0,30.16,WNW,300,10.0,-999.0,82,-99.99,,,0.00,weatherlink.com 1.10,2013-12-29 11:40:00,
2013-12-29 05:55:00,13.9,9.0,30.17,NNW,329,9.0,-999.0,82,-99.99,,,0.00,weatherlink.com 1.10,2013-12-29 11:55:00,
2013-12-29 06:10:00,13.5,9.0,30.17,West,261,12.0,-999.0,82,-99.99,,,0.00,weatherlink.com 1.10,2013-12-29 12:10:00,
2013-12-29 06:25:00,13.1,9.0,30.19,NNW,347,8.0,-999.0,82,-99.99,,,0.00,weatherlink.com 1.10,2013-12-29 12:25:00,
2013-12-29 06:40:00,12.6,8.0,30.20,NNW,327,13.0,-999.0,81,-99.99,,,0.00,weatherlink.com 1.10,2013-12-29 12:40:00,
2013-12-29 06:55:00,12.3,8.0,30.21,NW,304,21.0,-999.0,81,-99.99,,,0.00,weatherlink.com 1.10,2013-12-29 12:55:00,
2013-12-29 07:10:00,11.8,7.0,30.22,NNW,334,8.0,-999.0,81,-99.99,,,0.00,weatherlink.com 1.10,2013-12-29 13:10:00,
2013-12-29 07:26:00,10.9,6.0,30.22,WNW,288,6.0,-999.0,80,-99.99,,,0.00,weatherlink.com 1.10,2013-12-29 13:26:00,
2013-12-29 07:41:00,10.7,6.0,30.23,NW,315,10.0,-999.0,81,-99.99,,,0.00,weatherlink.com 1.10,2013-12-29 13:41:00,
2013-12-29 07:56:00,10.2,6.0,30.23,WNW,285,12.0,-999.0,81,-99.99,,,0.00,weatherlink.com 1.10,2013-12-29 13:56:00,
2013-12-29 08:11:00,10.2,6.0,30.24,NW,313,4.0,-999.0,82,-99.99,,,0.00,weatherlink.com 1.10,2013-12-29 14:11:00,
2013-12-29 08:26:00,10.0,5.0,30.26,NE,36,8.0,-999.0,81,-99.99,,,0.00,weatherlink.com 1.10,2013-12-29 14:26:00,
2013-12-29 08:41:00,9.5,7.0,30.26,North,360,10.0,-999.0,89,-99.99,,,0.00,weatherlink.com 1.10,2013-12-29 14:41:00,
2013-12-29 08:56:00,9.0,4.0,30.27,North,355,6.0,-999.0,79,-99.99,,,0.00,weatherlink.com 1.10,2013-12-29 14:56:00,
2013-12-29 09:11:00,8.6,4.0,30.27,NNW,329,11.0,-999.0,80,-99.99,,,0.00,weatherlink.com 1.10,2013-12-29 15:11:00,
2013-12-29 09:26:00,8.2,3.0,30.29,NNW,342,7.0,-999.0,80,-99.99,,,0.00,weatherlink.com 1.10,2013-12-29 15:26:00,
2013-12-29 09:41:00,8.0,3.0,30.30,NW,323,7.0,-999.0,79,-99.99,,,0.00,weatherlink.com 1.10,2013-12-29 15:41:00,
2013-12-29 09:57:00,7.8,3.0,30.31,North,5,8.0,-999.0,79,-99.99,,,0.00,weatherlink.com 1.10,2013-12-29 15:57:00,
2013-12-29 10:12:00,7.5,3.0,30.32,NNW,332,11.0,-999.0,81,-99.99,,,0.00,weatherlink.com 1.10,2013-12-29 16:12:00,
2013-12-29 10:27:00,6.9,2.0,30.33,NNW,336,9.0,-999.0,81,-99.99,,,0.00,weatherlink.com 1.10,2013-12-29 16:27:00,
2013-12-29 10:42:00,6.2,2.0,30.33,North,5,2.0,-999.0,81,-99.99,,,0.00,weatherlink.com 1.10,2013-12-29 16:42:00,
2013-12-29 10:57:00,7.1,2.0,30.33,NNW,337,9.0,-999.0,81,-99.99,,,0.00,weatherlink.com 1.10,2013-12-29 16:57:00,
2013-12-29 11:12:00,6.9,2.0,30.33,WNW,299,9.0,-999.0,80,-99.99,,,0.00,weatherlink.com 1.10,2013-12-29 17:12:00,
2013-12-29 11:27:00,7.7,3.0,30.33,NW,312,12.0,-999.0,79,-99.99,,,0.00,weatherlink.com 1.10,2013-12-29 17:27:00,
2013-12-29 11:42:00,8.7,3.0,30.33,WNW,293,7.0,-999.0,77,-99.99,,,0.00,weatherlink.com 1.10,2013-12-29 17:42:00,
2013-12-29 11:57:00,9.3,4.0,30.33,NNW,331,15.0,-999.0,77,-99.99,,,0.00,weatherlink.com 1.10,2013-12-29 17:57:00,
2013-12-29 12:12:00,9.7,4.0,30.32,NNW,341,4.0,-999.0,76,-99.99,,,0.00,weatherlink.com 1.10,2013-12-29 18:12:00,
2013-12-29 12:27:00,10.0,4.0,30.32,NNW,338,4.0,-999.0,75,-99.99,,,0.00,weatherlink.com 1.10,2013-12-29 18:27:00,
2013-12-29 12:42:00,10.0,4.0,30.33,WNW,300,11.0,-999.0,76,-99.99,,,0.00,weatherlink.com 1.10,2013-12-29 18:42:00,
2013-12-29 12:58:00,9.9,4.0,30.33,NW,326,13.0,-999.0,75,-99.99,,,0.00,weatherlink.com 1.10,2013-12-29 18:58:00,
2013-12-29 13:13:00,10.2,3.0,30.33,WNW,290,8.0,-999.0,74,-99.99,,,0.00,weatherlink.com 1.10,2013-12-29 19:13:00,
2013-12-29 13:28:00,10.4,3.0,30.33,NNW,333,18.0,-999.0,73,-99.99,,,0.00,weatherlink.com 1.10,2013-12-29 19:28:00,
2013-12-29 13:43:00,10.1,3.0,30.34,NNW,331,13.0,-999.0,72,-99.99,,,0.00,weatherlink.com 1.10,2013-12-29 19:43:00,
2013-12-29 13:58:00,10.5,3.0,30.34,North,5,5.0,-999.0,71,-99.99,,,0.00,weatherlink.com 1.10,2013-12-29 19:58:00,
2013-12-29 14:28:00,11.1,1.0,30.34,NNW,328,9.0,-999.0,64,-99.99,,,0.00,weatherlink.com 1.10,2013-12-29 20:28:00,
2013-12-29 14:43:00,11.5,0.0,30.34,NW,321,9.0,-999.0,59,-99.99,,,0.00,weatherlink.com 1.10,2013-12-29 20:43:00,
2013-12-29 14:58:00,11.4,-1.0,30.35,NNW,330,9.0,-999.0,58,-99.99,,,0.00,weatherlink.com 1.10,2013-12-29 20:58:00,
2013-12-29 15:13:00,11.8,-1.0,30.36,NNE,25,3.0,-999.0,56,-99.99,,,0.00,weatherlink.com 1.10,2013-12-29 21:13:00,
2013-12-29 15:28:00,11.4,-2.0,30.36,NW,321,11.0,-999.0,55,-99.99,,,0.00,weatherlink.com 1.10,2013-12-29 21:28:00,
2013-12-29 15:44:00,11.2,-2.0,30.37,NNW,327,7.0,-999.0,55,-99.99,,,0.00,weatherlink.com 1.10,2013-12-29 21:44:00,
2013-12-29 15:59:00,11.3,-3.0,30.37,NNE,12,4.0,-999.0,54,-99.99,,,0.00,weatherlink.com 1.10,2013-12-29 21:59:00,
2013-12-29 16:14:00,10.9,-3.0,30.38,NW,312,9.0,-999.0,55,-99.99,,,0.00,weatherlink.com 1.10,2013-12-29 22:14:00,
2013-12-29 16:29:00,10.7,-2.0,30.38,NW,312,5.0,-999.0,56,-99.99,,,0.00,weatherlink.com 1.10,2013-12-29 22:29:00,
2013-12-29 16:44:00,10.0,-2.0,30.38,NW,306,5.0,-999.0,58,-99.99,,,0.00,weatherlink.com 1.10,2013-12-29 22:44:00,
2013-12-29 16:59:00,9.5,-3.0,30.38,NW,323,8.0,-999.0,57,-99.99,,,0.00,weatherlink.com 1.10,2013-12-29 22:59:00,
2013-12-29 17:14:00,9.1,-3.0,30.39,NW,309,6.0,-999.0,57,-99.99,,,0.00,weatherlink.com 1.10,2013-12-29 23:14:00,
2013-12-29 17:29:00,8.7,-3.0,30.39,NW,311,7.0,-999.0,58,-99.99,,,0.00,weatherlink.com 1.10,2013-12-29 23:29:00,
2013-12-29 17:44:00,8.3,-3.0,30.40,NW,314,3.0,-999.0,59,-99.99,,,0.00,weatherlink.com 1.10,2013-12-29 23:44:00,
2013-12-29 17:59:00,7.8,-4.0,30.40,NW,321,5.0,-999.0,60,-99.99,,,0.00,weatherlink.com 1.10,2013-12-29 23:59:00,
2013-12-29 18:14:00,7.4,-4.0,30.40,NNW,331,4.0,-999.0,59,-99.99,,,0.00,weatherlink.com 1.10,2013-12-30 00:14:00,
2013-12-29 18:29:00,7.0,-4.0,30.41,NW,323,2.0,-999.0,60,-99.99,,,0.00,weatherlink.com 1.10,2013-12-30 00:29:00,
2013-12-29 18:45:00,6.6,-4.0,30.41,NNW,343,2.0,-999.0,61,-99.99,,,0.00,weatherlink.com 1.10,2013-12-30 00:45:00,
2013-12-29 19:00:00,6.3,-5.0,30.41,WNW,296,4.0,-999.0,61,-99.99,,,0.00,weatherlink.com 1.10,2013-12-30 01:00:00,
2013-12-29 19:15:00,5.8,-5.0,30.42,NW,313,6.0,-999.0,61,-99.99,,,0.00,weatherlink.com 1.10,2013-12-30 01:15:00,
2013-12-29 19:30:00,5.5,-5.0,30.42,NNW,331,3.0,-999.0,61,-99.99,,,0.00,weatherlink.com 1.10,2013-12-30 01:30:00,
2013-12-29 19:45:00,5.2,-5.0,30.43,NW,306,3.0,-999.0,63,-99.99,,,0.00,weatherlink.com 1.10,2013-12-30 01:45:00,
2013-12-29 20:00:00,4.9,-5.0,30.43,NW,311,3.0,-999.0,63,-99.99,,,0.00,weatherlink.com 1.10,2013-12-30 02:00:00,
2013-12-29 20:15:00,4.5,-6.0,30.43,WNW,296,1.0,-999.0,63,-99.99,,,0.00,weatherlink.com 1.10,2013-12-30 02:15:00,
2013-12-29 20:30:00,4.3,-6.0,30.43,NW,322,0.0,-999.0,63,-99.99,,,0.00,weatherlink.com 1.10,2013-12-30 02:30:00,
2013-12-29 20:45:00,3.9,-6.0,30.43,NW,311,2.0,-999.0,63,-99.99,,,0.00,weatherlink.com 1.10,2013-12-30 02:45:00,
2013-12-29 21:00:00,3.6,-6.0,30.43,NNW,327,3.0,-999.0,64,-99.99,,,0.00,weatherlink.com 1.10,2013-12-30 03:00:00,
2013-12-29 21:16:00,3.3,-6.0,30.43,NW,311,4.0,-999.0,64,-99.99,,,0.00,weatherlink.com 1.10,2013-12-30 03:16:00,
2013-12-29 21:31:00,3.1,-7.0,30.43,NNW,331,2.0,-999.0,64,-99.99,,,0.00,weatherlink.com 1.10,2013-12-30 03:31:00,
2013-12-29 21:46:00,2.9,-7.0,30.44,NW,311,4.0,-999.0,64,-99.99,,,0.00,weatherlink.com 1.10,2013-12-30 03:46:00,
2013-12-29 22:01:00,2.5,-7.0,30.44,NNW,335,5.0,-999.0,65,-99.99,,,0.00,weatherlink.com 1.10,2013-12-30 04:01:00,
2013-12-29 22:16:00,2.1,-7.0,30.44,NW,315,0.0,-999.0,66,-99.99,,,0.00,weatherlink.com 1.10,2013-12-30 04:16:00,
2013-12-29 22:31:00,1.8,-7.0,30.44,North,355,1.0,-999.0,67,-99.99,,,0.00,weatherlink.com 1.10,2013-12-30 04:31:00,
2013-12-29 22:46:00,1.5,-7.0,30.44,North,355,0.0,-999.0,68,-99.99,,,0.00,weatherlink.com 1.10,2013-12-30 04:46:00,
2013-12-29 23:01:00,1.3,-7.0,30.44,North,355,0.0,-999.0,68,-99.99,,,0.00,weatherlink.com 1.10,2013-12-30 05:01:00,
2013-12-29 23:16:00,0.9,-7.0,30.44,North,355,0.0,-999.0,69,-99.99,,,0.00,weatherlink.com 1.10,2013-12-30 05:16:00,
2013-12-29 23:31:00,0.6,-7.0,30.45,North,355,0.0,-999.0,70,-99.99,,,0.00,weatherlink.com 1.10,2013-12-30 05:31:00,
2013-12-29 23:46:00,0.6,-7.0,30.45,North,355,0.0,-999.0,71,-99.99,,,0.00,weatherlink.com 1.10,2013-12-30 05:46:00,